Flag for U.S.A. Weather past 2 weeks in Mountain View, California, U.S.A.

53 °F


Feels Like: 50 °F
Forecast: 40 / 54 °F
Wind: 9 mph from North

Location: Moffett Field

Current Time: Nov 25, 2015 at 3:45:23 PM

Latest Report: Nov 25, 2015 at 2:56 PM

Visibility: 10 mi

Pressure: 29.95 "Hg

Humidity: 48%

Dew point: 34 °F

Location of Mountain ViewLocation

Historic Weather in Mountain View — Graph


Mountain View temperature yesterday

Maximum temperature yesterday: 58 °F (at 9:56 AM)
Minimum temperature yesterday: 48 °F (at 10:56 PM)
Average temperature yesterday: 52 °F

Past Weeks' High & Low Weather Summary

High71 °F (Nov 20, 1:56 PM)100% (Nov 15, 8:03 AM)30.43 "Hg (Nov 15, 8:03 AM)
Low41 °F (Nov 11, 6:56 AM)28% (Nov 16, 2:56 PM)29.79 "Hg (Nov 15, 3:56 AM)
Average54 °F72%30.10 "Hg
* Reported Nov 10 1:56 PM — Nov 25 1:56 PM, Mountain View, Weather by CustomWeather, © 2015

Note: Actual official high and low records may vary slightly from our data, if they occured in-between our weather recording intervals... More about our weather records


Mountain View weather history for previous 24 hours

Time TempWeatherWind HumidityBarometerVisibility
1:56 PM
Wed, Nov 25
53 °FSunny.10 mph56%29.94 "Hg10 mi
12:56 PM52 °FSunny.9 mph57%29.94 "Hg10 mi
11:56 AM53 °FSunny.9 mph48%29.95 "Hg10 mi
10:56 AM52 °FScattered clouds.8 mph59%29.97 "Hg10 mi
9:56 AM49 °FCloudy.6 mph84%29.98 "Hg10 mi
8:56 AM47 °FPassing clouds.No wind86%29.98 "Hg10 mi
7:56 AM43 °FPassing clouds.No wind93%29.97 "Hg10 mi
6:56 AM41 °FClear.No wind93%29.96 "Hg10 mi
5:56 AM42 °FClear.No wind96%29.93 "Hg10 mi
4:56 AM42 °FClear.No wind96%29.93 "Hg10 mi
3:56 AM43 °FPassing clouds.No wind89%29.93 "Hg10 mi
2:56 AM45 °FLight rain. Mostly cloudy.6 mph90%29.93 "Hg10 mi
1:56 AM45 °FPassing clouds.5 mph93%29.91 "Hg10 mi
12:56 AM46 °FHeavy rain. Fog.5 mph86%29.91 "Hg4 mi
11:56 PM
Tue, Nov 24
48 °FLight rain. Mostly cloudy.3 mph80%29.92 "Hg10 mi
10:56 PM48 °FPassing clouds.3 mph77%29.93 "Hg10 mi
9:56 PM49 °FPassing clouds.No wind74%29.94 "Hg10 mi
8:56 PM50 °FPassing clouds.No wind71%29.93 "Hg10 mi
7:56 PM51 °FLight rain. Overcast.3 mph66%29.94 "Hg10 mi
6:56 PM50 °FPassing clouds.No wind66%29.94 "Hg10 mi
5:56 PM52 °FPassing clouds.5 mph59%29.95 "Hg10 mi
4:56 PM53 °FPassing clouds.8 mph56%29.94 "Hg10 mi
3:56 PM54 °FPartly sunny.16 mph57%29.94 "Hg10 mi
Weather by CustomWeather, © 2015

See weather overviewHow to use our weather pages